| time (UTC) | temp C | wind direction | speed KPH | gust KPH | rain 1hr cm | rain 24hr cm | rain mn cm | humidity % | barometer mb |
| 20260504192456 | 28 | 170 | 4.8 | 8.0 | 0.00 | 0.00 | 0.00 | 57 | 1013.1 |
| 20260504192358 | 28 | 240 | 4.8 | 4.8 | 0.00 | 0.00 | 0.00 | 58 | 1013.1 |
| 20260504192257 | 28 | 259 | 3.2 | 4.8 | 0.00 | 0.00 | 0.00 | 59 | 1013.1 |
| 20260504192158 | 28 | 259 | 1.6 | 4.8 | 0.00 | 0.00 | 0.00 | 58 | 1013.2 |
| 20260504192058 | 28 | 259 | 3.2 | 4.8 | 0.00 | 0.00 | 0.00 | 58 | 1013.1 |
| 20260504192000 | 28 | 260 | 1.6 | 4.8 | 0.00 | 0.00 | 0.00 | 58 | 1013.1 |
| 20260504191858 | 28 | 260 | 0.0 | 6.4 | 0.00 | 0.00 | 0.00 | 58 | 1013.1 |
| 20260504191659 | 28 | 260 | 4.8 | 6.4 | 0.00 | 0.00 | 0.00 | 58 | 1013.2 |
| 20260504191558 | 28 | 85 | 1.6 | 6.4 | 0.00 | 0.00 | 0.00 | 58 | 1013.1 |
| 20260504191458 | 28 | 85 | 1.6 | 6.4 | 0.00 | 0.00 | 0.00 | 57 | 1013.1 |
| 20260504191257 | 28 | 85 | 3.2 | 6.4 | 0.00 | 0.00 | 0.00 | 57 | 1013.1 |
| 20260504191158 | 28 | 167 | 1.6 | 9.7 | 0.00 | 0.00 | 0.00 | 58 | 1013.1 |
| 20260504191057 | 28 | 166 | 0.0 | 9.7 | 0.00 | 0.00 | 0.00 | 57 | 1013.2 |
| 20260504190958 | 28 | 168 | 0.0 | 9.7 | 0.00 | 0.00 | 0.00 | 58 | 1013.2 |
| 20260504190856 | 28 | 168 | 0.0 | 9.7 | 0.00 | 0.00 | 0.00 | 58 | 1013.2 |
| 20260504190757 | 28 | 166 | 4.8 | 14.5 | 0.00 | 0.00 | 0.00 | 59 | 1013.2 |
| 20260504190659 | 27 | 181 | 0.0 | 14.5 | 0.00 | 0.00 | 0.00 | 58 | 1013.2 |
| 20260504190557 | 27 | 181 | 3.2 | 14.5 | 0.00 | 0.00 | 0.00 | 58 | 1013.2 |
| 20260504190457 | 27 | 104 | 1.6 | 14.5 | 0.00 | 0.00 | 0.00 | 58 | 1013.1 |
| 20260504190356 | 27 | 95 | 9.7 | 14.5 | 0.00 | 0.00 | 0.00 | 58 | 1013.2 |
| 20260504190256 | 27 | 178 | 3.2 | 14.5 | 0.00 | 0.00 | 0.00 | 58 | 1013.2 |
| 20260504190156 | 27 | 194 | 1.6 | 14.5 | 0.00 | 0.00 | 0.00 | 59 | 1013.1 |
| 20260504190004 | 27 | 166 | 1.6 | 14.5 | 0.00 | 0.00 | 0.00 | 57 | 1013.1 |
| 20260504185858 | 27 | 171 | 11.3 | 11.3 | 0.00 | 0.00 | 0.00 | 60 | 1013.1 |
| 20260504185757 | 27 | 221 | 0.0 | 8.0 | 0.00 | 0.00 | 0.00 | 59 | 1013.1 |
| 20260504185656 | 27 | 221 | 0.0 | 8.0 | 0.00 | 0.00 | 0.00 | 58 | 1013.2 |
| 20260504185558 | 27 | 226 | 3.2 | 8.0 | 0.00 | 0.00 | 0.00 | 58 | 1013.2 |
| 20260504185459 | 27 | 226 | 0.0 | 8.0 | 0.00 | 0.00 | 0.00 | 58 | 1013.3 |
| 20260504185356 | 27 | 233 | 0.0 | 9.7 | 0.00 | 0.00 | 0.00 | 59 | 1013.4 |
| 20260504185256 | 27 | 233 | 0.0 | 9.7 | 0.00 | 0.00 | 0.00 | 58 | 1013.4 |
| 20260504185158 | 27 | 232 | 3.2 | 9.7 | 0.00 | 0.00 | 0.00 | 58 | 1013.4 |
| 20260504184958 | 27 | 179 | 0.0 | 9.7 | 0.00 | 0.00 | 0.00 | 58 | 1013.3 |
| 20260504184856 | 27 | 179 | 1.6 | 9.7 | 0.00 | 0.00 | 0.00 | 58 | 1013.3 |
| 20260504184759 | 27 | 240 | 0.0 | 9.7 | 0.00 | 0.00 | 0.00 | 58 | 1013.4 |
| 20260504184655 | 27 | 240 | 1.6 | 9.7 | 0.00 | 0.00 | 0.00 | 58 | 1013.4 |
| 20260504184557 | 27 | 240 | 0.0 | 9.7 | 0.00 | 0.00 | 0.00 | 57 | 1013.4 |
| 20260504184457 | 27 | 204 | 6.4 | 8.0 | 0.00 | 0.00 | 0.00 | 57 | 1013.4 |
| 20260504184359 | 27 | 175 | 3.2 | 8.0 | 0.00 | 0.00 | 0.00 | 57 | 1013.4 |
| 20260504184258 | 27 | 264 | 0.0 | 8.0 | 0.00 | 0.00 | 0.00 | 57 | 1013.5 |
| 20260504184158 | 27 | 327 | 4.8 | 8.0 | 0.00 | 0.00 | 0.00 | 58 | 1013.4 |
| 20260504184056 | 27 | 30 | 3.2 | 8.0 | 0.00 | 0.00 | 0.00 | 57 | 1013.4 |
| 20260504183856 | 27 | 219 | 4.8 | 8.0 | 0.00 | 0.00 | 0.00 | 57 | 1013.5 |
| 20260504183756 | 28 | 217 | 4.8 | 6.4 | 0.00 | 0.00 | 0.00 | 58 | 1013.5 |
| 20260504183657 | 27 | 171 | 3.2 | 6.4 | 0.00 | 0.00 | 0.00 | 58 | 1013.4 |
| 20260504183558 | 27 | 171 | 1.6 | 6.4 | 0.00 | 0.00 | 0.00 | 59 | 1013.4 |
| 20260504183357 | 27 | 171 | 1.6 | 6.4 | 0.00 | 0.00 | 0.00 | 58 | 1013.4 |
| 20260504183256 | 27 | 171 | 1.6 | 6.4 | 0.00 | 0.00 | 0.00 | 58 | 1013.4 |
| 20260504183156 | 27 | 183 | 0.0 | 6.4 | 0.00 | 0.00 | 0.00 | 58 | 1013.4 |
| 20260504183056 | 27 | 183 | 1.6 | 6.4 | 0.00 | 0.00 | 0.00 | 58 | 1013.4 |
| 20260504182959 | 27 | 183 | 0.0 | 6.4 | 0.00 | 0.00 | 0.00 | 58 | 1013.4 |
| 20260504182856 | 27 | 183 | 1.6 | 6.4 | 0.00 | 0.00 | 0.00 | 58 | 1013.4 |
| 20260504182757 | 27 | 183 | 3.2 | 6.4 | 0.00 | 0.00 | 0.00 | 58 | 1013.4 |
| 20260504182656 | 27 | 183 | 1.6 | 6.4 | 0.00 | 0.00 | 0.00 | 57 | 1013.5 |
| 20260504182558 | 27 | 182 | 0.0 | 6.4 | 0.00 | 0.00 | 0.00 | 58 | 1013.5 |
| 20260504182458 | 27 | 182 | 3.2 | 6.4 | 0.00 | 0.00 | 0.00 | 58 | 1013.5 |
| 20260504182356 | 27 | 182 | 3.2 | 6.4 | 0.00 | 0.00 | 0.00 | 59 | 1013.6 |
| 20260504182258 | 27 | 185 | 1.6 | 4.8 | 0.00 | 0.00 | 0.00 | 58 | 1013.6 |
| 20260504182157 | 27 | 185 | 0.0 | 4.8 | 0.00 | 0.00 | 0.00 | 58 | 1013.6 |
| 20260504182059 | 27 | 185 | 0.0 | 4.8 | 0.00 | 0.00 | 0.00 | 59 | 1013.5 |
| 20260504182000 | 27 | 185 | 0.0 | 6.4 | 0.00 | 0.00 | 0.00 | 59 | 1013.5 |
| 20260504181757 | 27 | 185 | 1.6 | 6.4 | 0.00 | 0.00 | 0.00 | 59 | 1013.6 |
| 20260504181658 | 27 | 271 | 0.0 | 6.4 | 0.00 | 0.00 | 0.00 | 59 | 1013.6 |
| 20260504181558 | 27 | 271 | 0.0 | 6.4 | 0.00 | 0.00 | 0.00 | 59 | 1013.6 |
| 20260504181457 | 27 | 271 | 0.0 | 6.4 | 0.00 | 0.00 | 0.00 | 59 | 1013.7 |
| 20260504181356 | 27 | 295 | 4.8 | 6.4 | 0.00 | 0.00 | 0.00 | 60 | 1013.7 |
| 20260504181258 | 27 | 296 | 0.0 | 6.4 | 0.00 | 0.00 | 0.00 | 59 | 1013.8 |
| 20260504181156 | 27 | 296 | 3.2 | 6.4 | 0.00 | 0.00 | 0.00 | 60 | 1013.7 |
| 20260504180959 | 27 | 308 | 0.0 | 6.4 | 0.00 | 0.00 | 0.00 | 60 | 1013.8 |
| 20260504180857 | 27 | 308 | 1.6 | 6.4 | 0.00 | 0.00 | 0.00 | 60 | 1013.8 |
| 20260504180758 | 27 | 308 | 0.0 | 6.4 | 0.00 | 0.00 | 0.00 | 60 | 1013.8 |
| 20260504180558 | 26 | 308 | 0.0 | 6.4 | 0.00 | 0.00 | 0.00 | 61 | 1013.9 |
| 20260504180457 | 26 | 182 | 0.0 | 9.7 | 0.00 | 0.00 | 0.00 | 62 | 1013.9 |
| 20260504180256 | 26 | 182 | 0.0 | 9.7 | 0.00 | 0.00 | 0.00 | 61 | 1014.0 |
| 20260504180158 | 26 | 182 | 0.0 | 9.7 | 0.00 | 0.00 | 0.00 | 61 | 1014.0 |
| 20260504180057 | 26 | 182 | 4.8 | 9.7 | 0.00 | 0.00 | 0.00 | 61 | 1014.1 |
| 20260504180001 | 26 | 171 | 0.0 | 9.7 | 0.00 | 0.00 | 0.00 | 59 | 1013.9 |
| 20260504175858 | 26 | 171 | 0.0 | 9.7 | 0.00 | 0.00 | 0.00 | 59 | 1013.9 |
| 20260504175558 | 26 | 175 | 0.0 | 9.7 | 0.00 | 0.00 | 0.00 | 59 | 1014.1 |
| 20260504175458 | 26 | 177 | 6.4 | 9.7 | 0.00 | 0.00 | 0.00 | 59 | 1014.1 |
| 20260504175358 | 26 | 171 | 8.0 | 9.7 | 0.00 | 0.00 | 0.00 | 59 | 1014.1 |
| 20260504175256 | 26 | 166 | 6.4 | 9.7 | 0.00 | 0.00 | 0.00 | 60 | 1014.0 |
| 20260504175156 | 26 | 217 | 0.0 | 6.4 | 0.00 | 0.00 | 0.00 | 60 | 1014.1 |
| 20260504175058 | 26 | 217 | 4.8 | 6.4 | 0.00 | 0.00 | 0.00 | 60 | 1014.1 |
| 20260504174958 | 26 | 140 | 0.0 | 9.7 | 0.00 | 0.00 | 0.00 | 60 | 1014.1 |
| 20260504174857 | 26 | 139 | 0.0 | 9.7 | 0.00 | 0.00 | 0.00 | 60 | 1014.2 |
| 20260504174758 | 26 | 179 | 6.4 | 9.7 | 0.00 | 0.00 | 0.00 | 60 | 1014.2 |
| 20260504174557 | 26 | 165 | 1.6 | 9.7 | 0.00 | 0.00 | 0.00 | 60 | 1014.2 |
| 20260504174458 | 26 | 165 | 1.6 | 9.7 | 0.00 | 0.00 | 0.00 | 60 | 1014.2 |
| 20260504174400 | 26 | 165 | 1.6 | 9.7 | 0.00 | 0.00 | 0.00 | 60 | 1014.2 |
| 20260504174257 | 26 | 156 | 1.6 | 9.7 | 0.00 | 0.00 | 0.00 | 60 | 1014.2 |
| 20260504174158 | 26 | 156 | 4.8 | 9.7 | 0.00 | 0.00 | 0.00 | 60 | 1014.2 |
| 20260504174056 | 26 | 156 | 3.2 | 4.8 | 0.00 | 0.00 | 0.00 | 60 | 1014.2 |
| 20260504173858 | 26 | 156 | 1.6 | 8.0 | 0.00 | 0.00 | 0.00 | 60 | 1014.3 |
| 20260504173758 | 26 | 156 | 0.0 | 12.9 | 0.00 | 0.00 | 0.00 | 61 | 1014.2 |
| 20260504173657 | 26 | 156 | 0.0 | 12.9 | 0.00 | 0.00 | 0.00 | 61 | 1014.2 |
| 20260504173558 | 26 | 156 | 0.0 | 12.9 | 0.00 | 0.00 | 0.00 | 60 | 1014.2 |
| 20260504173458 | 26 | 156 | 0.0 | 12.9 | 0.00 | 0.00 | 0.00 | 60 | 1014.2 |
| 20260504173356 | 26 | 166 | 0.0 | 12.9 | 0.00 | 0.00 | 0.00 | 60 | 1014.2 |
| 20260504173257 | 26 | 166 | 0.0 | 12.9 | 0.00 | 0.00 | 0.00 | 60 | 1014.3 |
| 20260504173056 | 26 | 166 | 6.4 | 12.9 | 0.00 | 0.00 | 0.00 | 59 | 1014.3 |
| 20260504172959 | 26 | 171 | 3.2 | 12.9 | 0.00 | 0.00 | 0.00 | 59 | 1014.4 |
| 20260504172856 | 26 | 223 | 4.8 | 6.4 | 0.00 | 0.00 | 0.00 | 60 | 1014.3 |
| 20260504172758 | 26 | 224 | 0.0 | 9.7 | 0.00 | 0.00 | 0.00 | 59 | 1014.4 |
| 20260504172657 | 26 | 225 | 0.0 | 9.7 | 0.00 | 0.00 | 0.00 | 59 | 1014.4 |
| 20260504172558 | 26 | 225 | 0.0 | 9.7 | 0.00 | 0.00 | 0.00 | 59 | 1014.4 |
| 20260504172357 | 26 | 283 | 0.0 | 9.7 | 0.00 | 0.00 | 0.00 | 60 | 1014.5 |
| 20260504172258 | 26 | 229 | 0.0 | 9.7 | 0.00 | 0.00 | 0.00 | 60 | 1014.6 |
| 20260504172158 | 26 | 231 | 0.0 | 9.7 | 0.00 | 0.00 | 0.00 | 59 | 1014.6 |
| 20260504172055 | 26 | 231 | 3.2 | 11.3 | 0.00 | 0.00 | 0.00 | 59 | 1014.6 |
| 20260504172000 | 26 | 231 | 1.6 | 11.3 | 0.00 | 0.00 | 0.00 | 58 | 1014.6 |
| 20260504171758 | 27 | 210 | 4.8 | 12.9 | 0.00 | 0.00 | 0.00 | 59 | 1014.6 |
| 20260504171656 | 27 | 149 | 1.6 | 12.9 | 0.00 | 0.00 | 0.00 | 58 | 1014.6 |
| 20260504171559 | 27 | 160 | 0.0 | 12.9 | 0.00 | 0.00 | 0.00 | 59 | 1014.7 |
| 20260504171457 | 27 | 160 | 3.2 | 12.9 | 0.00 | 0.00 | 0.00 | 59 | 1014.6 |
| 20260504171358 | 26 | 170 | 4.8 | 12.9 | 0.00 | 0.00 | 0.00 | 59 | 1014.6 |
| 20260504171156 | 26 | 162 | 1.6 | 12.9 | 0.00 | 0.00 | 0.00 | 59 | 1014.6 |
| 20260504171000 | 26 | 160 | 1.6 | 8.0 | 0.00 | 0.00 | 0.00 | 60 | 1014.6 |
| 20260504170756 | 26 | 152 | 1.6 | 8.0 | 0.00 | 0.00 | 0.00 | 59 | 1014.7 |
| 20260504170656 | 26 | 202 | 0.0 | 8.0 | 0.00 | 0.00 | 0.00 | 59 | 1014.7 |
| 20260504170556 | 26 | 202 | 0.0 | 8.0 | 0.00 | 0.00 | 0.00 | 59 | 1014.7 |
| 20260504170356 | 26 | 174 | 3.2 | 8.0 | 0.00 | 0.00 | 0.00 | 60 | 1014.8 |
| 20260504170156 | 26 | 185 | 1.6 | 8.0 | 0.00 | 0.00 | 0.00 | 60 | 1014.9 |
| 20260504160358 | 25 | 166 | 3.2 | 11.3 | 0.00 | 0.00 | 0.00 | 64 | 1015.7 |
| 20260504160258 | 25 | 171 | 0.0 | 11.3 | 0.00 | 0.00 | 0.00 | 64 | 1015.7 |
| 20260504151057 | 23 | 179 | 0.0 | 9.7 | 0.00 | 0.00 | 0.00 | 65 | 1015.6 |
| 20260504150959 | 23 | 225 | 1.6 | 9.7 | 0.00 | 0.00 | 0.00 | 65 | 1015.6 |
| 20260504150757 | 23 | 146 | 6.4 | 9.7 | 0.00 | 0.00 | 0.00 | 65 | 1015.6 |
| 20260504150657 | 23 | 260 | 6.4 | 8.0 | 0.00 | 0.00 | 0.00 | 65 | 1015.6 |
| 20260504150558 | 23 | 193 | 4.8 | 8.0 | 0.00 | 0.00 | 0.00 | 65 | 1015.6 |
| 20260504150500 | 23 | 197 | 0.0 | 8.0 | 0.00 | 0.00 | 0.00 | 65 | 1015.6 |
| 20260504150400 | 23 | 197 | 3.2 | 8.0 | 0.00 | 0.00 | 0.00 | 65 | 1015.6 |
| 20260504150257 | 23 | 196 | 4.8 | 8.0 | 0.00 | 0.00 | 0.00 | 65 | 1015.6 |
| 20260504141159 | 21 | 240 | 0.0 | 4.8 | 0.00 | 0.00 | 0.00 | 65 | 1015.8 |
| 20260504141055 | 21 | 240 | 1.6 | 4.8 | 0.00 | 0.00 | 0.00 | 65 | 1015.8 |
| 20260504140958 | 21 | 240 | 0.0 | 4.8 | 0.00 | 0.00 | 0.00 | 65 | 1015.8 |
| 20260504140856 | 21 | 240 | 3.2 | 4.8 | 0.00 | 0.00 | 0.00 | 65 | 1015.7 |
| 20260504140758 | 21 | 240 | 3.2 | 6.4 | 0.00 | 0.00 | 0.00 | 65 | 1015.7 |
| 20260504140658 | 21 | 240 | 1.6 | 9.7 | 0.00 | 0.00 | 0.00 | 65 | 1015.7 |
| 20260504140558 | 21 | 240 | 1.6 | 9.7 | 0.00 | 0.00 | 0.00 | 65 | 1015.7 |
| 20260504140456 | 21 | 240 | 0.0 | 9.7 | 0.00 | 0.00 | 0.00 | 64 | 1015.7 |
| 20260504140358 | 21 | 240 | 1.6 | 9.7 | 0.00 | 0.00 | 0.00 | 64 | 1015.7 |
| 20260504140255 | 21 | 240 | 0.0 | 9.7 | 0.00 | 0.00 | 0.00 | 64 | 1015.7 |
| 20260504130657 | 15 | 188 | 0.0 | 0.0 | 0.00 | 0.00 | 0.00 | 11 | 1015.7 |
| 20260504130457 | 15 | 188 | 0.0 | 0.0 | 0.00 | 0.00 | 0.00 | 12 | 1015.6 |
| 20260504130357 | 15 | 188 | 0.0 | 0.0 | 0.00 | 0.00 | 0.00 | 12 | 1015.6 |
| 20260504130257 | 15 | 188 | 0.0 | 0.0 | 0.00 | 0.00 | 0.00 | 13 | 1015.7 |
| 20260504130157 | 15 | 188 | 0.0 | 0.0 | 0.00 | 0.00 | 0.00 | 14 | 1015.6 |
| 20260504120256 | 12 | 188 | 0.0 | 0.0 | 0.00 | 0.00 | 0.00 | 33 | 1015.4 |
| 20260504120158 | 12 | 188 | 0.0 | 0.0 | 0.00 | 0.00 | 0.00 | 33 | 1015.4 |
| 20260504110658 | 12 | 188 | 0.0 | 0.0 | 0.00 | 0.00 | 0.00 | 41 | 1015.4 |
| 20260504110556 | 12 | 188 | 0.0 | 0.0 | 0.00 | 0.00 | 0.00 | 42 | 1015.3 |
| 20260504110456 | 12 | 188 | 0.0 | 0.0 | 0.00 | 0.00 | 0.00 | 43 | 1015.3 |
| 20260504110358 | 12 | 188 | 0.0 | 0.0 | 0.00 | 0.00 | 0.00 | 45 | 1015.3 |
| 20260504110257 | 12 | 188 | 0.0 | 0.0 | 0.00 | 0.00 | 0.00 | 46 | 1015.3 |
| 20260504110156 | 12 | 188 | 0.0 | 0.0 | 0.00 | 0.00 | 0.00 | 46 | 1015.4 |
| 20260504100558 | 13 | 188 | 0.0 | 0.0 | 0.00 | 0.00 | 0.00 | 51 | 1015.6 |
| 20260504100357 | 13 | 188 | 0.0 | 0.0 | 0.00 | 0.00 | 0.00 | 50 | 1015.6 |
| 20260504100158 | 13 | 188 | 0.0 | 0.0 | 0.00 | 0.00 | 0.00 | 50 | 1015.5 |
| 20260504081958 | 13 | 188 | 0.0 | 0.0 | 0.00 | 0.00 | 0.00 | 58 | 1016.1 |
| 20260504081858 | 13 | 188 | 0.0 | 0.0 | 0.00 | 0.00 | 0.00 | 58 | 1016.0 |
| 20260504081656 | 13 | 188 | 0.0 | 0.0 | 0.00 | 0.00 | 0.00 | 58 | 1016.0 |
| 20260504081559 | 13 | 188 | 0.0 | 0.0 | 0.00 | 0.00 | 0.00 | 58 | 1016.1 |
| 20260504081457 | 13 | 188 | 0.0 | 0.0 | 0.00 | 0.00 | 0.00 | 59 | 1016.1 |
| 20260504081358 | 13 | 188 | 0.0 | 0.0 | 0.00 | 0.00 | 0.00 | 59 | 1016.1 |
| 20260504081158 | 13 | 188 | 0.0 | 0.0 | 0.00 | 0.00 | 0.00 | 60 | 1016.2 |
| 20260504081057 | 13 | 188 | 0.0 | 0.0 | 0.00 | 0.00 | 0.00 | 60 | 1016.3 |
| 20260504081000 | 13 | 188 | 0.0 | 0.0 | 0.00 | 0.00 | 0.00 | 60 | 1016.3 |
| 20260504080900 | 14 | 188 | 0.0 | 0.0 | 0.00 | 0.00 | 0.00 | 60 | 1016.4 |
| 20260504080659 | 14 | 188 | 0.0 | 0.0 | 0.00 | 0.00 | 0.00 | 60 | 1016.4 |
| 20260504080558 | 14 | 188 | 0.0 | 0.0 | 0.00 | 0.00 | 0.00 | 60 | 1016.4 |
| 20260504080457 | 14 | 188 | 0.0 | 0.0 | 0.00 | 0.00 | 0.00 | 61 | 1016.4 |
| 20260504080359 | 14 | 188 | 0.0 | 0.0 | 0.00 | 0.00 | 0.00 | 61 | 1016.4 |
| 20260504080257 | 14 | 188 | 0.0 | 0.0 | 0.00 | 0.00 | 0.00 | 61 | 1016.4 |
| 20260504070255 | 14 | 188 | 0.0 | 0.0 | 0.00 | 0.00 | 0.00 | 64 | 1017.2 |
| 20260504070158 | 14 | 188 | 0.0 | 0.0 | 0.00 | 0.00 | 0.00 | 64 | 1017.3 |
| 20260504060159 | 15 | 188 | 0.0 | 0.0 | 0.00 | 0.00 | 0.00 | 67 | 1017.6 |
| 20260504050656 | 15 | 188 | 0.0 | 0.0 | 0.00 | 0.00 | 0.00 | 68 | 1018.0 |
| 20260504050558 | 16 | 188 | 0.0 | 0.0 | 0.00 | 0.00 | 0.00 | 68 | 1018.0 |
| 20260504050357 | 16 | 188 | 0.0 | 0.0 | 0.00 | 0.00 | 0.00 | 68 | 1018.0 |
| 20260504050256 | 16 | 188 | 0.0 | 0.0 | 0.00 | 0.00 | 0.00 | 68 | 1018.0 |
| 20260504050158 | 16 | 188 | 0.0 | 0.0 | 0.00 | 0.00 | 0.00 | 68 | 1018.0 |
| 20260504045958 | 16 | 188 | 0.0 | 0.0 | 0.00 | 0.00 | 0.00 | 68 | 1018.0 |
| 20260504045857 | 16 | 188 | 0.0 | 0.0 | 0.00 | 0.00 | 0.00 | 68 | 1018.0 |
| 20260504045758 | 16 | 188 | 0.0 | 0.0 | 0.00 | 0.00 | 0.00 | 68 | 1018.0 |
| 20260504045658 | 16 | 188 | 0.0 | 0.0 | 0.00 | 0.00 | 0.00 | 68 | 1018.0 |
| 20260504045457 | 16 | 188 | 0.0 | 0.0 | 0.00 | 0.00 | 0.00 | 68 | 1018.0 |
| 20260504045357 | 16 | 188 | 0.0 | 0.0 | 0.00 | 0.00 | 0.00 | 68 | 1018.0 |
| 20260504045256 | 16 | 188 | 0.0 | 0.0 | 0.00 | 0.00 | 0.00 | 68 | 1018.0 |
| 20260504045156 | 16 | 188 | 0.0 | 0.0 | 0.00 | 0.00 | 0.00 | 68 | 1018.0 |
| 20260504045056 | 16 | 188 | 0.0 | 0.0 | 0.00 | 0.00 | 0.00 | 68 | 1018.0 |
| 20260504044958 | 16 | 188 | 0.0 | 0.0 | 0.00 | 0.00 | 0.00 | 68 | 1018.0 |
| 20260504044858 | 16 | 188 | 0.0 | 0.0 | 0.00 | 0.00 | 0.00 | 68 | 1018.0 |
| 20260504044757 | 16 | 188 | 0.0 | 0.0 | 0.00 | 0.00 | 0.00 | 69 | 1018.1 |
| 20260504044557 | 16 | 188 | 0.0 | 0.0 | 0.00 | 0.00 | 0.00 | 69 | 1018.1 |
| 20260504044458 | 16 | 188 | 0.0 | 0.0 | 0.00 | 0.00 | 0.00 | 69 | 1018.1 |
| 20260504044359 | 16 | 188 | 0.0 | 0.0 | 0.00 | 0.00 | 0.00 | 69 | 1018.1 |
| 20260504044258 | 16 | 188 | 0.0 | 0.0 | 0.00 | 0.00 | 0.00 | 69 | 1018.1 |
| 20260504044159 | 16 | 188 | 0.0 | 0.0 | 0.00 | 0.00 | 0.00 | 69 | 1018.1 |
| 20260504044058 | 16 | 188 | 0.0 | 0.0 | 0.00 | 0.00 | 0.00 | 69 | 1018.1 |
| 20260504044001 | 16 | 188 | 0.0 | 0.0 | 0.00 | 0.00 | 0.00 | 69 | 1018.2 |
| 20260504043757 | 16 | 188 | 0.0 | 0.0 | 0.00 | 0.00 | 0.00 | 68 | 1018.2 |
| 20260504043659 | 16 | 188 | 0.0 | 0.0 | 0.00 | 0.00 | 0.00 | 68 | 1018.2 |
| 20260504043559 | 16 | 188 | 0.0 | 0.0 | 0.00 | 0.00 | 0.00 | 68 | 1018.1 |
| 20260504043358 | 16 | 188 | 0.0 | 0.0 | 0.00 | 0.00 | 0.00 | 69 | 1018.1 |
| 20260504043258 | 16 | 188 | 0.0 | 0.0 | 0.00 | 0.00 | 0.00 | 69 | 1018.0 |
| 20260504043158 | 16 | 188 | 0.0 | 0.0 | 0.00 | 0.00 | 0.00 | 68 | 1018.1 |
| 20260504042856 | 16 | 188 | 0.0 | 0.0 | 0.00 | 0.00 | 0.00 | 68 | 1018.2 |
| 20260504042757 | 16 | 188 | 0.0 | 0.0 | 0.00 | 0.00 | 0.00 | 68 | 1018.2 |
| 20260504042658 | 16 | 188 | 0.0 | 0.0 | 0.00 | 0.00 | 0.00 | 68 | 1018.3 |
| 20260504042557 | 16 | 188 | 0.0 | 0.0 | 0.00 | 0.00 | 0.00 | 68 | 1018.3 |
| 20260504042357 | 16 | 188 | 0.0 | 0.0 | 0.00 | 0.00 | 0.00 | 68 | 1018.2 |
| 20260504042258 | 16 | 188 | 0.0 | 0.0 | 0.00 | 0.00 | 0.00 | 68 | 1018.2 |
| 20260504042158 | 16 | 188 | 0.0 | 0.0 | 0.00 | 0.00 | 0.00 | 68 | 1018.2 |
| 20260504042058 | 16 | 188 | 0.0 | 0.0 | 0.00 | 0.00 | 0.00 | 68 | 1018.2 |
| 20260504042000 | 16 | 188 | 0.0 | 0.0 | 0.00 | 0.00 | 0.00 | 67 | 1018.1 |
| 20260504041856 | 16 | 188 | 0.0 | 0.0 | 0.00 | 0.00 | 0.00 | 67 | 1018.2 |
| 20260504041757 | 16 | 188 | 0.0 | 0.0 | 0.00 | 0.00 | 0.00 | 67 | 1018.2 |
| 20260504041657 | 16 | 188 | 0.0 | 0.0 | 0.00 | 0.00 | 0.00 | 66 | 1018.1 |
| 20260504041559 | 16 | 188 | 0.0 | 0.0 | 0.00 | 0.00 | 0.00 | 67 | 1018.1 |
| 20260504041459 | 16 | 188 | 0.0 | 0.0 | 0.00 | 0.00 | 0.00 | 67 | 1018.2 |
| 20260504041257 | 16 | 188 | 0.0 | 0.0 | 0.00 | 0.00 | 0.00 | 67 | 1018.2 |
| 20260504041157 | 16 | 188 | 0.0 | 0.0 | 0.00 | 0.00 | 0.00 | 67 | 1018.1 |
| 20260504041058 | 17 | 188 | 0.0 | 0.0 | 0.00 | 0.00 | 0.00 | 67 | 1018.2 |
| 20260504040958 | 17 | 188 | 0.0 | 0.0 | 0.00 | 0.00 | 0.00 | 66 | 1018.2 |
| 20260504040856 | 17 | 188 | 0.0 | 0.0 | 0.00 | 0.00 | 0.00 | 66 | 1018.2 |
| 20260504040757 | 17 | 188 | 0.0 | 0.0 | 0.00 | 0.00 | 0.00 | 65 | 1018.2 |
| 20260504040658 | 17 | 188 | 0.0 | 0.0 | 0.00 | 0.00 | 0.00 | 65 | 1018.2 |
| 20260504040358 | 17 | 188 | 0.0 | 0.0 | 0.00 | 0.00 | 0.00 | 65 | 1018.0 |
| 20260504040259 | 17 | 188 | 0.0 | 0.0 | 0.00 | 0.00 | 0.00 | 66 | 1018.0 |
| 20260504040157 | 17 | 188 | 0.0 | 0.0 | 0.00 | 0.00 | 0.00 | 65 | 1018.0 |
| 20260504040056 | 17 | 188 | 0.0 | 0.0 | 0.00 | 0.00 | 0.00 | 65 | 1017.9 |
| 20260504035957 | 17 | 188 | 0.0 | 0.0 | 0.00 | 0.00 | 0.00 | 65 | 1018.0 |
| 20260504035858 | 17 | 188 | 0.0 | 0.0 | 0.00 | 0.00 | 0.00 | 65 | 1018.0 |
| 20260504035756 | 17 | 188 | 0.0 | 0.0 | 0.00 | 0.00 | 0.00 | 65 | 1018.1 |
| 20260504035658 | 17 | 188 | 0.0 | 0.0 | 0.00 | 0.00 | 0.00 | 65 | 1018.0 |
| 20260504035559 | 17 | 188 | 0.0 | 0.0 | 0.00 | 0.00 | 0.00 | 64 | 1018.0 |
| 20260504035458 | 17 | 188 | 0.0 | 0.0 | 0.00 | 0.00 | 0.00 | 64 | 1018.0 |
| 20260504035357 | 17 | 188 | 0.0 | 0.0 | 0.00 | 0.00 | 0.00 | 64 | 1018.0 |
| 20260504035256 | 17 | 188 | 0.0 | 0.0 | 0.00 | 0.00 | 0.00 | 64 | 1018.0 |
| 20260504035058 | 17 | 188 | 0.0 | 0.0 | 0.00 | 0.00 | 0.00 | 65 | 1018.0 |
| 20260504034958 | 17 | 188 | 0.0 | 0.0 | 0.00 | 0.00 | 0.00 | 66 | 1018.1 |
| 20260504034858 | 17 | 188 | 0.0 | 0.0 | 0.00 | 0.00 | 0.00 | 66 | 1018.1 |
| 20260504034757 | 17 | 188 | 0.0 | 0.0 | 0.00 | 0.00 | 0.00 | 65 | 1018.0 |
| 20260504034656 | 17 | 188 | 0.0 | 0.0 | 0.00 | 0.00 | 0.00 | 65 | 1018.2 |
| 20260504034456 | 17 | 188 | 0.0 | 0.0 | 0.00 | 0.00 | 0.00 | 65 | 1018.2 |
| 20260504034258 | 17 | 188 | 0.0 | 0.0 | 0.00 | 0.00 | 0.00 | 65 | 1018.3 |
| 20260504034159 | 17 | 188 | 0.0 | 0.0 | 0.00 | 0.00 | 0.00 | 65 | 1018.2 |
| 20260504034058 | 18 | 188 | 0.0 | 0.0 | 0.00 | 0.00 | 0.00 | 65 | 1018.3 |
| 20260504034000 | 18 | 188 | 0.0 | 0.0 | 0.00 | 0.00 | 0.00 | 65 | 1018.2 |
| 20260504033759 | 18 | 188 | 0.0 | 0.0 | 0.00 | 0.00 | 0.00 | 64 | 1018.2 |
| 20260504033558 | 18 | 188 | 0.0 | 0.0 | 0.00 | 0.00 | 0.00 | 63 | 1018.2 |
| 20260504033456 | 18 | 188 | 0.0 | 0.0 | 0.00 | 0.00 | 0.00 | 64 | 1018.2 |
| 20260504033359 | 18 | 188 | 0.0 | 0.0 | 0.00 | 0.00 | 0.00 | 64 | 1018.2 |
| 20260504033256 | 18 | 188 | 0.0 | 0.0 | 0.00 | 0.00 | 0.00 | 64 | 1018.2 |
| 20260504033157 | 18 | 188 | 0.0 | 0.0 | 0.00 | 0.00 | 0.00 | 64 | 1018.2 |
| 20260504033056 | 18 | 188 | 0.0 | 0.0 | 0.00 | 0.00 | 0.00 | 64 | 1018.2 |
| 20260504033000 | 18 | 188 | 0.0 | 0.0 | 0.00 | 0.00 | 0.00 | 64 | 1018.2 |
| 20260504032856 | 18 | 188 | 0.0 | 0.0 | 0.00 | 0.00 | 0.00 | 64 | 1018.2 |
| 20260504032758 | 18 | 188 | 0.0 | 0.0 | 0.00 | 0.00 | 0.00 | 64 | 1018.2 |
| 20260504032658 | 18 | 188 | 0.0 | 0.0 | 0.00 | 0.00 | 0.00 | 63 | 1018.2 |
| 20260504032559 | 18 | 188 | 0.0 | 0.0 | 0.00 | 0.00 | 0.00 | 63 | 1018.2 |
| 20260504032456 | 18 | 188 | 0.0 | 0.0 | 0.00 | 0.00 | 0.00 | 63 | 1018.2 |
| 20260504032357 | 18 | 188 | 0.0 | 0.0 | 0.00 | 0.00 | 0.00 | 64 | 1018.1 |
| 20260504032258 | 18 | 188 | 0.0 | 0.0 | 0.00 | 0.00 | 0.00 | 63 | 1018.1 |
| 20260504032159 | 18 | 188 | 0.0 | 0.0 | 0.00 | 0.00 | 0.00 | 63 | 1018.1 |
| 20260504032058 | 18 | 188 | 0.0 | 0.0 | 0.00 | 0.00 | 0.00 | 64 | 1018.2 |
| 20260504031958 | 18 | 188 | 0.0 | 0.0 | 0.00 | 0.00 | 0.00 | 63 | 1018.2 |
| 20260504031857 | 18 | 188 | 0.0 | 0.0 | 0.00 | 0.00 | 0.00 | 63 | 1018.1 |
| 20260504031659 | 18 | 188 | 0.0 | 0.0 | 0.00 | 0.00 | 0.00 | 63 | 1018.2 |
| 20260504031556 | 18 | 188 | 0.0 | 0.0 | 0.00 | 0.00 | 0.00 | 63 | 1018.2 |
| 20260504031456 | 18 | 188 | 0.0 | 0.0 | 0.00 | 0.00 | 0.00 | 63 | 1018.2 |
| 20260504031157 | 18 | 188 | 0.0 | 1.6 | 0.00 | 0.00 | 0.00 | 63 | 1018.1 |
| 20260504030758 | 18 | 188 | 0.0 | 1.6 | 0.00 | 0.00 | 0.00 | 63 | 1018.2 |
| 20260504030658 | 18 | 188 | 0.0 | 1.6 | 0.00 | 0.00 | 0.00 | 62 | 1018.2 |
| 20260504030559 | 19 | 188 | 0.0 | 1.6 | 0.00 | 0.00 | 0.00 | 63 | 1018.1 |
| 20260504030458 | 19 | 188 | 0.0 | 1.6 | 0.00 | 0.00 | 0.00 | 62 | 1018.1 |
| 20260504030357 | 19 | 188 | 0.0 | 1.6 | 0.00 | 0.00 | 0.00 | 62 | 1018.1 |
| 20260504030258 | 19 | 188 | 0.0 | 0.0 | 0.00 | 0.00 | 0.00 | 62 | 1018.0 |
| 20260504030056 | 19 | 188 | 0.0 | 0.0 | 0.00 | 0.00 | 0.00 | 62 | 1018.0 |
| 20260504030000 | 19 | 188 | 0.0 | 1.6 | 0.00 | 0.00 | 0.00 | 62 | 1018.0 |
| 20260504025858 | 19 | 188 | 0.0 | 1.6 | 0.00 | 0.00 | 0.00 | 62 | 1018.0 |
| 20260504025759 | 19 | 188 | 0.0 | 1.6 | 0.00 | 0.00 | 0.00 | 62 | 1018.0 |
| 20260504025656 | 19 | 188 | 0.0 | 1.6 | 0.00 | 0.00 | 0.00 | 62 | 1017.9 |
| 20260504025557 | 19 | 188 | 0.0 | 1.6 | 0.00 | 0.00 | 0.00 | 62 | 1017.9 |
| 20260504025358 | 19 | 188 | 0.0 | 1.6 | 0.00 | 0.00 | 0.00 | 61 | 1017.9 |
| 20260504025257 | 19 | 188 | 0.0 | 1.6 | 0.00 | 0.00 | 0.00 | 61 | 1017.9 |
| 20260504025158 | 19 | 188 | 0.0 | 1.6 | 0.00 | 0.00 | 0.00 | 61 | 1018.0 |
| 20260504025058 | 19 | 188 | 0.0 | 1.6 | 0.00 | 0.00 | 0.00 | 61 | 1017.9 |
| 20260504024958 | 19 | 188 | 0.0 | 1.6 | 0.00 | 0.00 | 0.00 | 61 | 1017.9 |
| 20260504024658 | 19 | 188 | 0.0 | 1.6 | 0.00 | 0.00 | 0.00 | 61 | 1017.9 |
| 20260504024559 | 19 | 188 | 0.0 | 1.6 | 0.00 | 0.00 | 0.00 | 61 | 1018.0 |
| 20260504024457 | 19 | 188 | 0.0 | 1.6 | 0.00 | 0.00 | 0.00 | 61 | 1017.9 |
| 20260504024358 | 19 | 188 | 0.0 | 1.6 | 0.00 | 0.00 | 0.00 | 61 | 1017.9 |
| 20260504024257 | 19 | 188 | 0.0 | 1.6 | 0.00 | 0.00 | 0.00 | 61 | 1017.9 |
| 20260504024158 | 19 | 188 | 0.0 | 3.2 | 0.00 | 0.00 | 0.00 | 61 | 1017.9 |
| 20260504024058 | 20 | 188 | 1.6 | 3.2 | 0.00 | 0.00 | 0.00 | 60 | 1017.9 |
| 20260504023959 | 20 | 188 | 0.0 | 3.2 | 0.00 | 0.00 | 0.00 | 60 | 1017.9 |
| 20260504023858 | 20 | 188 | 0.0 | 3.2 | 0.00 | 0.00 | 0.00 | 60 | 1017.9 |
| 20260504023758 | 20 | 188 | 0.0 | 3.2 | 0.00 | 0.00 | 0.00 | 60 | 1017.9 |
| 20260504023657 | 20 | 188 | 0.0 | 3.2 | 0.00 | 0.00 | 0.00 | 60 | 1018.0 |
| 20260504023557 | 20 | 188 | 0.0 | 3.2 | 0.00 | 0.00 | 0.00 | 60 | 1018.0 |
| 20260504023456 | 20 | 188 | 0.0 | 3.2 | 0.00 | 0.00 | 0.00 | 60 | 1018.0 |
| 20260504023256 | 20 | 188 | 0.0 | 1.6 | 0.00 | 0.00 | 0.00 | 59 | 1018.0 |
| 20260504023159 | 20 | 188 | 0.0 | 1.6 | 0.00 | 0.00 | 0.00 | 59 | 1018.0 |
| 20260504023058 | 20 | 188 | 0.0 | 1.6 | 0.00 | 0.00 | 0.00 | 59 | 1018.0 |
| 20260504023000 | 20 | 188 | 0.0 | 1.6 | 0.00 | 0.00 | 0.00 | 59 | 1017.9 |
| 20260504022858 | 20 | 188 | 0.0 | 1.6 | 0.00 | 0.00 | 0.00 | 59 | 1017.9 |
| 20260504022758 | 20 | 188 | 0.0 | 1.6 | 0.00 | 0.00 | 0.00 | 59 | 1017.9 |
| 20260504022656 | 20 | 188 | 0.0 | 1.6 | 0.00 | 0.00 | 0.00 | 59 | 1017.9 |
| 20260504022559 | 20 | 188 | 0.0 | 1.6 | 0.00 | 0.00 | 0.00 | 59 | 1017.9 |
| 20260504022458 | 20 | 188 | 0.0 | 1.6 | 0.00 | 0.00 | 0.00 | 59 | 1017.9 |
| 20260504022359 | 20 | 188 | 0.0 | 1.6 | 0.00 | 0.00 | 0.00 | 59 | 1017.9 |
| 20260504022258 | 20 | 188 | 0.0 | 1.6 | 0.00 | 0.00 | 0.00 | 59 | 1017.9 |
| 20260504022158 | 20 | 188 | 0.0 | 1.6 | 0.00 | 0.00 | 0.00 | 59 | 1017.9 |
| 20260504022057 | 20 | 188 | 0.0 | 1.6 | 0.00 | 0.00 | 0.00 | 58 | 1017.9 |
| 20260504021858 | 20 | 188 | 0.0 | 1.6 | 0.00 | 0.00 | 0.00 | 58 | 1017.9 |
| 20260504021758 | 20 | 188 | 0.0 | 1.6 | 0.00 | 0.00 | 0.00 | 58 | 1017.9 |
| 20260504021657 | 20 | 188 | 0.0 | 1.6 | 0.00 | 0.00 | 0.00 | 58 | 1017.8 |
| 20260504021557 | 20 | 188 | 0.0 | 1.6 | 0.00 | 0.00 | 0.00 | 58 | 1017.9 |
| 20260504021456 | 20 | 188 | 1.6 | 1.6 | 0.00 | 0.00 | 0.00 | 58 | 1017.9 |
| 20260504021358 | 20 | 188 | 0.0 | 1.6 | 0.00 | 0.00 | 0.00 | 58 | 1017.8 |
| 20260504021256 | 20 | 188 | 0.0 | 1.6 | 0.00 | 0.00 | 0.00 | 58 | 1017.8 |
| 20260504021157 | 20 | 188 | 0.0 | 1.6 | 0.00 | 0.00 | 0.00 | 58 | 1017.8 |
| 20260504021056 | 20 | 188 | 0.0 | 1.6 | 0.00 | 0.00 | 0.00 | 57 | 1017.8 |
| 20260504021000 | 20 | 188 | 0.0 | 1.6 | 0.00 | 0.00 | 0.00 | 57 | 1017.7 |
| 20260504020856 | 20 | 188 | 0.0 | 1.6 | 0.00 | 0.00 | 0.00 | 57 | 1017.7 |
| 20260504020759 | 20 | 188 | 0.0 | 3.2 | 0.00 | 0.00 | 0.00 | 57 | 1017.7 |
| 20260504020658 | 20 | 188 | 0.0 | 3.2 | 0.00 | 0.00 | 0.00 | 57 | 1017.7 |
| 20260504020600 | 20 | 188 | 0.0 | 3.2 | 0.00 | 0.00 | 0.00 | 57 | 1017.7 |
| 20260504020458 | 20 | 188 | 1.6 | 3.2 | 0.00 | 0.00 | 0.00 | 57 | 1017.7 |
| 20260504020357 | 20 | 188 | 0.0 | 3.2 | 0.00 | 0.00 | 0.00 | 57 | 1017.7 |
| 20260504020256 | 20 | 188 | 0.0 | 3.2 | 0.00 | 0.00 | 0.00 | 57 | 1017.8 |
| 20260504020157 | 20 | 188 | 1.6 | 3.2 | 0.00 | 0.00 | 0.00 | 57 | 1017.7 |
| 20260504020058 | 20 | 188 | 0.0 | 3.2 | 0.00 | 0.00 | 0.00 | 57 | 1017.7 |
| 20260504020001 | 20 | 188 | 1.6 | 3.2 | 0.00 | 0.00 | 0.00 | 57 | 1017.7 |
| 20260504015858 | 20 | 188 | 3.2 | 3.2 | 0.00 | 0.00 | 0.00 | 57 | 1017.8 |
| 20260504015759 | 20 | 188 | 0.0 | 3.2 | 0.00 | 0.00 | 0.00 | 57 | 1017.8 |
| 20260504015657 | 20 | 188 | 1.6 | 3.2 | 0.00 | 0.00 | 0.00 | 57 | 1017.8 |
| 20260504015558 | 20 | 188 | 1.6 | 1.6 | 0.00 | 0.00 | 0.00 | 57 | 1017.7 |
| 20260504015458 | 20 | 188 | 0.0 | 1.6 | 0.00 | 0.00 | 0.00 | 56 | 1017.8 |
| 20260504015358 | 21 | 188 | 0.0 | 3.2 | 0.00 | 0.00 | 0.00 | 56 | 1017.8 |
| 20260504015256 | 21 | 188 | 1.6 | 3.2 | 0.00 | 0.00 | 0.00 | 56 | 1017.8 |
| 20260504015157 | 21 | 188 | 0.0 | 3.2 | 0.00 | 0.00 | 0.00 | 56 | 1017.8 |
| 20260504015056 | 21 | 188 | 0.0 | 3.2 | 0.00 | 0.00 | 0.00 | 56 | 1017.9 |
| 20260504014858 | 21 | 188 | 0.0 | 3.2 | 0.00 | 0.00 | 0.00 | 56 | 1017.9 |
| 20260504014758 | 21 | 188 | 0.0 | 3.2 | 0.00 | 0.00 | 0.00 | 56 | 1017.9 |
| 20260504014658 | 21 | 189 | 1.6 | 3.2 | 0.00 | 0.00 | 0.00 | 55 | 1017.9 |
| 20260504014557 | 21 | 189 | 0.0 | 4.8 | 0.00 | 0.00 | 0.00 | 55 | 1017.8 |
| 20260504014458 | 21 | 189 | 1.6 | 4.8 | 0.00 | 0.00 | 0.00 | 55 | 1017.8 |
| 20260504014358 | 21 | 189 | 0.0 | 4.8 | 0.00 | 0.00 | 0.00 | 55 | 1017.8 |
| 20260504014258 | 21 | 189 | 1.6 | 4.8 | 0.00 | 0.00 | 0.00 | 55 | 1017.8 |
| 20260504014157 | 21 | 189 | 0.0 | 4.8 | 0.00 | 0.00 | 0.00 | 55 | 1017.7 |
| 20260504014058 | 21 | 189 | 0.0 | 4.8 | 0.00 | 0.00 | 0.00 | 55 | 1017.8 |
| 20260504013858 | 21 | 189 | 0.0 | 4.8 | 0.00 | 0.00 | 0.00 | 55 | 1017.8 |
| 20260504013756 | 21 | 189 | 1.6 | 4.8 | 0.00 | 0.00 | 0.00 | 55 | 1017.7 |
| 20260504013658 | 21 | 189 | 0.0 | 4.8 | 0.00 | 0.00 | 0.00 | 55 | 1017.7 |
| 20260504013559 | 21 | 189 | 3.2 | 4.8 | 0.00 | 0.00 | 0.00 | 54 | 1017.8 |
| 20260504013356 | 21 | 189 | 0.0 | 4.8 | 0.00 | 0.00 | 0.00 | 54 | 1017.8 |
| 20260504013258 | 21 | 189 | 0.0 | 4.8 | 0.00 | 0.00 | 0.00 | 54 | 1017.7 |
| 20260504013056 | 21 | 188 | 1.6 | 4.8 | 0.00 | 0.00 | 0.00 | 54 | 1017.7 |
| 20260504012858 | 21 | 188 | 1.6 | 4.8 | 0.00 | 0.00 | 0.00 | 54 | 1017.7 |
| 20260504012758 | 21 | 188 | 3.2 | 4.8 | 0.00 | 0.00 | 0.00 | 54 | 1017.7 |
| 20260504012658 | 21 | 188 | 0.0 | 4.8 | 0.00 | 0.00 | 0.00 | 54 | 1017.8 |
| 20260504012559 | 21 | 188 | 0.0 | 4.8 | 0.00 | 0.00 | 0.00 | 53 | 1017.8 |
| 20260504012458 | 21 | 188 | 0.0 | 4.8 | 0.00 | 0.00 | 0.00 | 53 | 1017.8 |
| 20260504012359 | 21 | 188 | 0.0 | 4.8 | 0.00 | 0.00 | 0.00 | 53 | 1017.7 |
| 20260504012258 | 21 | 188 | 0.0 | 3.2 | 0.00 | 0.00 | 0.00 | 53 | 1017.7 |
| 20260504012156 | 21 | 188 | 1.6 | 3.2 | 0.00 | 0.00 | 0.00 | 53 | 1017.7 |
| 20260504012058 | 21 | 188 | 1.6 | 3.2 | 0.00 | 0.00 | 0.00 | 53 | 1017.6 |
| 20260504012000 | 21 | 188 | 0.0 | 6.4 | 0.00 | 0.00 | 0.00 | 53 | 1017.6 |
| 20260504011756 | 21 | 188 | 0.0 | 6.4 | 0.00 | 0.00 | 0.00 | 52 | 1017.6 |
| 20260504011656 | 21 | 188 | 1.6 | 6.4 | 0.00 | 0.00 | 0.00 | 53 | 1017.7 |
| 20260504011558 | 21 | 188 | 1.6 | 6.4 | 0.00 | 0.00 | 0.00 | 52 | 1017.6 |
| 20260504011458 | 21 | 188 | 0.0 | 6.4 | 0.00 | 0.00 | 0.00 | 52 | 1017.6 |
| 20260504011357 | 21 | 188 | 0.0 | 6.4 | 0.00 | 0.00 | 0.00 | 53 | 1017.6 |
| 20260504011256 | 21 | 188 | 1.6 | 6.4 | 0.00 | 0.00 | 0.00 | 52 | 1017.6 |
| 20260504011059 | 21 | 195 | 0.0 | 4.8 | 0.00 | 0.00 | 0.00 | 52 | 1017.6 |
| 20260504010856 | 22 | 195 | 1.6 | 4.8 | 0.00 | 0.00 | 0.00 | 52 | 1017.6 |
| 20260504010756 | 22 | 195 | 1.6 | 4.8 | 0.00 | 0.00 | 0.00 | 52 | 1017.5 |
| 20260504010658 | 22 | 195 | 0.0 | 3.2 | 0.00 | 0.00 | 0.00 | 52 | 1017.5 |
| 20260504010556 | 22 | 195 | 1.6 | 3.2 | 0.00 | 0.00 | 0.00 | 52 | 1017.5 |
| 20260504010458 | 22 | 195 | 0.0 | 3.2 | 0.00 | 0.00 | 0.00 | 52 | 1017.6 |
| 20260504010359 | 22 | 195 | 0.0 | 3.2 | 0.00 | 0.00 | 0.00 | 52 | 1017.6 |
| 20260504010258 | 22 | 195 | 0.0 | 3.2 | 0.00 | 0.00 | 0.00 | 51 | 1017.6 |
| 20260504010157 | 22 | 195 | 0.0 | 3.2 | 0.00 | 0.00 | 0.00 | 51 | 1017.6 |
| 20260504010004 | 22 | 195 | 0.0 | 6.4 | 0.00 | 0.00 | 0.00 | 51 | 1017.6 |
| 20260504005756 | 22 | 195 | 0.0 | 6.4 | 0.00 | 0.00 | 0.00 | 51 | 1017.5 |
| 20260504005656 | 22 | 195 | 0.0 | 6.4 | 0.00 | 0.00 | 0.00 | 51 | 1017.5 |
| 20260504005558 | 22 | 195 | 0.0 | 6.4 | 0.00 | 0.00 | 0.00 | 51 | 1017.5 |
| 20260504005458 | 22 | 195 | 0.0 | 6.4 | 0.00 | 0.00 | 0.00 | 51 | 1017.5 |
| 20260504005357 | 22 | 195 | 0.0 | 6.4 | 0.00 | 0.00 | 0.00 | 50 | 1017.5 |
| 20260504005256 | 22 | 195 | 3.2 | 6.4 | 0.00 | 0.00 | 0.00 | 50 | 1017.6 |
| 20260504005158 | 22 | 195 | 1.6 | 4.8 | 0.00 | 0.00 | 0.00 | 50 | 1017.6 |
| 20260504005058 | 22 | 195 | 3.2 | 4.8 | 0.00 | 0.00 | 0.00 | 50 | 1017.6 |
| 20260504004959 | 22 | 195 | 4.8 | 4.8 | 0.00 | 0.00 | 0.00 | 50 | 1017.7 |
| 20260504004759 | 22 | 195 | 1.6 | 4.8 | 0.00 | 0.00 | 0.00 | 50 | 1017.7 |
| 20260504004658 | 22 | 195 | 0.0 | 4.8 | 0.00 | 0.00 | 0.00 | 50 | 1017.7 |
| 20260504004457 | 22 | 195 | 0.0 | 4.8 | 0.00 | 0.00 | 0.00 | 50 | 1017.6 |
| 20260504004357 | 22 | 195 | 0.0 | 4.8 | 0.00 | 0.00 | 0.00 | 50 | 1017.6 |
| 20260504004258 | 22 | 195 | 1.6 | 4.8 | 0.00 | 0.00 | 0.00 | 49 | 1017.6 |
| 20260504004159 | 22 | 195 | 0.0 | 4.8 | 0.00 | 0.00 | 0.00 | 49 | 1017.6 |
| 20260504003958 | 22 | 208 | 1.6 | 4.8 | 0.00 | 0.00 | 0.00 | 49 | 1017.6 |
| 20260504003858 | 22 | 208 | 0.0 | 4.8 | 0.00 | 0.00 | 0.00 | 49 | 1017.6 |
| 20260504003759 | 22 | 208 | 1.6 | 4.8 | 0.00 | 0.00 | 0.00 | 49 | 1017.6 |
| 20260504003656 | 22 | 208 | 0.0 | 4.8 | 0.00 | 0.00 | 0.00 | 49 | 1017.5 |
| 20260504003557 | 22 | 208 | 1.6 | 4.8 | 0.00 | 0.00 | 0.00 | 49 | 1017.5 |
| 20260504003459 | 22 | 208 | 1.6 | 3.2 | 0.00 | 0.00 | 0.00 | 48 | 1017.5 |
| 20260504003358 | 22 | 208 | 0.0 | 3.2 | 0.00 | 0.00 | 0.00 | 48 | 1017.4 |
| 20260504003256 | 22 | 208 | 0.0 | 3.2 | 0.00 | 0.00 | 0.00 | 48 | 1017.5 |
| 20260504003157 | 22 | 208 | 3.2 | 3.2 | 0.00 | 0.00 | 0.00 | 48 | 1017.4 |
| 20260504003058 | 22 | 208 | 1.6 | 6.4 | 0.00 | 0.00 | 0.00 | 48 | 1017.5 |
| 20260504003000 | 22 | 208 | 0.0 | 6.4 | 0.00 | 0.00 | 0.00 | 48 | 1017.5 |
| 20260504002856 | 22 | 208 | 1.6 | 6.4 | 0.00 | 0.00 | 0.00 | 47 | 1017.5 |
| 20260504002756 | 22 | 208 | 3.2 | 9.7 | 0.00 | 0.00 | 0.00 | 48 | 1017.6 |
| 20260504002658 | 22 | 208 | 1.6 | 9.7 | 0.00 | 0.00 | 0.00 | 47 | 1017.5 |
| 20260504002458 | 23 | 208 | 0.0 | 9.7 | 0.00 | 0.00 | 0.00 | 48 | 1017.5 |
| 20260504002357 | 23 | 208 | 1.6 | 9.7 | 0.00 | 0.00 | 0.00 | 48 | 1017.5 |
| 20260504002258 | 23 | 208 | 1.6 | 9.7 | 0.00 | 0.00 | 0.00 | 48 | 1017.5 |
| 20260504002156 | 23 | 199 | 4.8 | 9.7 | 0.00 | 0.00 | 0.00 | 48 | 1017.5 |
| 20260504002056 | 23 | 198 | 3.2 | 9.7 | 0.00 | 0.00 | 0.00 | 48 | 1017.5 |
| 20260504001957 | 23 | 245 | 3.2 | 9.7 | 0.00 | 0.00 | 0.00 | 47 | 1017.5 |
| 20260504001858 | 23 | 166 | 0.0 | 11.3 | 0.00 | 0.00 | 0.00 | 47 | 1017.5 |
| 20260504001759 | 23 | 166 | 1.6 | 11.3 | 0.00 | 0.00 | 0.00 | 47 | 1017.5 |
| 20260504001656 | 23 | 165 | 1.6 | 11.3 | 0.00 | 0.00 | 0.00 | 47 | 1017.5 |
| 20260504001557 | 23 | 165 | 4.8 | 11.3 | 0.00 | 0.00 | 0.00 | 47 | 1017.5 |
| 20260504001458 | 23 | 165 | 3.2 | 11.3 | 0.00 | 0.00 | 0.00 | 46 | 1017.5 |
| 20260504001359 | 23 | 165 | 1.6 | 11.3 | 0.00 | 0.00 | 0.00 | 46 | 1017.5 |
| 20260504001256 | 23 | 165 | 4.8 | 11.3 | 0.00 | 0.00 | 0.00 | 46 | 1017.5 |
| 20260504001157 | 23 | 223 | 6.4 | 11.3 | 0.00 | 0.00 | 0.00 | 46 | 1017.4 |
| 20260504001058 | 23 | 260 | 1.6 | 11.3 | 0.00 | 0.00 | 0.00 | 46 | 1017.4 |
| 20260504000858 | 23 | 216 | 0.0 | 6.4 | 0.00 | 0.00 | 0.00 | 46 | 1017.4 |
| 20260504000757 | 23 | 216 | 0.0 | 6.4 | 0.00 | 0.00 | 0.00 | 45 | 1017.4 |
| 20260504000656 | 23 | 216 | 4.8 | 6.4 | 0.00 | 0.00 | 0.00 | 45 | 1017.4 |
| 20260504000458 | 23 | 214 | 1.6 | 8.0 | 0.00 | 0.00 | 0.00 | 45 | 1017.5 |
| 20260504000356 | 23 | 214 | 3.2 | 8.0 | 0.00 | 0.00 | 0.00 | 45 | 1017.6 |
| 20260504000256 | 24 | 216 | 1.6 | 8.0 | 0.00 | 0.00 | 0.00 | 45 | 1017.6 |
| 20260504000058 | 24 | 183 | 1.6 | 8.0 | 0.00 | 0.00 | 0.00 | 45 | 1017.5 |
| 20260503235857 | 24 | 183 | 3.2 | 8.0 | 0.00 | 0.00 | 0.00 | 45 | 1017.5 |
| 20260503235758 | 24 | 181 | 1.6 | 8.0 | 0.00 | 0.00 | 0.00 | 44 | 1017.5 |
| 20260503235700 | 24 | 181 | 3.2 | 8.0 | 0.00 | 0.00 | 0.00 | 44 | 1017.5 |
| 20260503235601 | 24 | 232 | 3.2 | 8.0 | 0.00 | 0.00 | 0.00 | 44 | 1017.5 |
| 20260503235458 | 24 | 233 | 3.2 | 8.0 | 0.00 | 0.00 | 0.00 | 45 | 1017.6 |
| 20260503235358 | 24 | 234 | 3.2 | 8.0 | 0.00 | 0.00 | 0.00 | 45 | 1017.6 |
| 20260503235300 | 24 | 234 | 1.6 | 8.0 | 0.00 | 0.00 | 0.00 | 45 | 1017.6 |
| 20260503235201 | 24 | 234 | 0.0 | 8.0 | 0.00 | 0.00 | 0.00 | 45 | 1017.6 |
| 20260503235057 | 24 | 235 | 0.0 | 8.0 | 0.00 | 0.00 | 0.00 | 45 | 1017.6 |
| 20260503234900 | 25 | 240 | 6.4 | 8.0 | 0.00 | 0.00 | 0.00 | 44 | 1017.5 |
| 20260503234758 | 25 | 163 | 3.2 | 4.8 | 0.00 | 0.00 | 0.00 | 44 | 1017.5 |
| 20260503234657 | 25 | 162 | 3.2 | 4.8 | 0.00 | 0.00 | 0.00 | 44 | 1017.5 |
| 20260503234557 | 25 | 162 | 1.6 | 4.8 | 0.00 | 0.00 | 0.00 | 44 | 1017.5 |
| 20260503234500 | 25 | 162 | 1.6 | 4.8 | 0.00 | 0.00 | 0.00 | 44 | 1017.5 |
| 20260503234401 | 25 | 162 | 1.6 | 4.8 | 0.00 | 0.00 | 0.00 | 44 | 1017.5 |
| 20260503234257 | 25 | 162 | 1.6 | 8.0 | 0.00 | 0.00 | 0.00 | 44 | 1017.5 |
| 20260503234159 | 25 | 162 | 0.0 | 8.0 | 0.00 | 0.00 | 0.00 | 44 | 1017.5 |
| 20260503234059 | 25 | 162 | 0.0 | 8.0 | 0.00 | 0.00 | 0.00 | 44 | 1017.5 |
| 20260503234001 | 25 | 162 | 3.2 | 8.0 | 0.00 | 0.00 | 0.00 | 44 | 1017.6 |
| 20260503233758 | 25 | 162 | 0.0 | 8.0 | 0.00 | 0.00 | 0.00 | 44 | 1017.6 |
| 20260503233659 | 25 | 162 | 0.0 | 8.0 | 0.00 | 0.00 | 0.00 | 43 | 1017.6 |
| 20260503233600 | 25 | 162 | 1.6 | 8.0 | 0.00 | 0.00 | 0.00 | 43 | 1017.6 |
| 20260503233457 | 25 | 162 | 3.2 | 8.0 | 0.00 | 0.00 | 0.00 | 43 | 1017.7 |
| 20260503233358 | 25 | 161 | 3.2 | 8.0 | 0.00 | 0.00 | 0.00 | 43 | 1017.7 |
| 20260503233259 | 25 | 162 | 1.6 | 6.4 | 0.00 | 0.00 | 0.00 | 44 | 1017.7 |
| 20260503233201 | 25 | 162 | 1.6 | 6.4 | 0.00 | 0.00 | 0.00 | 44 | 1017.7 |
| 20260503233057 | 25 | 161 | 1.6 | 9.7 | 0.00 | 0.00 | 0.00 | 43 | 1017.7 |
| 20260503232959 | 25 | 162 | 3.2 | 9.7 | 0.00 | 0.00 | 0.00 | 44 | 1017.8 |
| 20260503232857 | 25 | 162 | 3.2 | 9.7 | 0.00 | 0.00 | 0.00 | 43 | 1017.8 |
| 20260503232801 | 25 | 162 | 1.6 | 9.7 | 0.00 | 0.00 | 0.00 | 44 | 1017.8 |
| 20260503232700 | 25 | 162 | 0.0 | 9.7 | 0.00 | 0.00 | 0.00 | 43 | 1017.8 |
| 20260503232558 | 25 | 161 | 1.6 | 9.7 | 0.00 | 0.00 | 0.00 | 43 | 1017.9 |
| 20260503232400 | 25 | 164 | 1.6 | 9.7 | 0.00 | 0.00 | 0.00 | 43 | 1017.9 |
| 20260503232300 | 25 | 169 | 3.2 | 8.0 | 0.00 | 0.00 | 0.00 | 43 | 1017.8 |
| 20260503232157 | 25 | 220 | 1.6 | 8.0 | 0.00 | 0.00 | 0.00 | 43 | 1017.8 |
| 20260503232059 | 25 | 220 | 0.0 | 8.0 | 0.00 | 0.00 | 0.00 | 43 | 1017.8 |
| 20260503232000 | 25 | 220 | 1.6 | 8.0 | 0.00 | 0.00 | 0.00 | 43 | 1017.8 |
| 20260503231900 | 25 | 222 | 4.8 | 8.0 | 0.00 | 0.00 | 0.00 | 43 | 1017.9 |
| 20260503231757 | 25 | 240 | 8.0 | 8.0 | 0.00 | 0.00 | 0.00 | 43 | 1017.9 |
| 20260503231559 | 25 | 179 | 1.6 | 8.0 | 0.00 | 0.00 | 0.00 | 43 | 1017.9 |
| 20260503231458 | 25 | 177 | 1.6 | 8.0 | 0.00 | 0.00 | 0.00 | 43 | 1017.9 |
| 20260503231358 | 25 | 212 | 1.6 | 8.0 | 0.00 | 0.00 | 0.00 | 43 | 1017.9 |
| 20260503231257 | 25 | 224 | 6.4 | 8.0 | 0.00 | 0.00 | 0.00 | 43 | 1017.9 |
| 20260503231201 | 25 | 240 | 0.0 | 8.0 | 0.00 | 0.00 | 0.00 | 43 | 1017.9 |
| 20260503231057 | 25 | 235 | 6.4 | 8.0 | 0.00 | 0.00 | 0.00 | 43 | 1017.8 |
| 20260503230959 | 25 | 214 | 1.6 | 8.0 | 0.00 | 0.00 | 0.00 | 43 | 1017.8 |
| 20260503230857 | 25 | 214 | 3.2 | 8.0 | 0.00 | 0.00 | 0.00 | 43 | 1017.8 |
| 20260503230800 | 25 | 215 | 4.8 | 8.0 | 0.00 | 0.00 | 0.00 | 43 | 1017.8 |
| 20260503230657 | 25 | 231 | 1.6 | 8.0 | 0.00 | 0.00 | 0.00 | 43 | 1017.8 |
| 20260503230557 | 25 | 231 | 4.8 | 8.0 | 0.00 | 0.00 | 0.00 | 43 | 1017.8 |
| 20260503230458 | 25 | 235 | 3.2 | 8.0 | 0.00 | 0.00 | 0.00 | 43 | 1017.8 |
| 20260503230400 | 25 | 159 | 1.6 | 9.7 | 0.00 | 0.00 | 0.00 | 43 | 1017.8 |
| 20260503230257 | 25 | 159 | 1.6 | 9.7 | 0.00 | 0.00 | 0.00 | 43 | 1017.7 |
| 20260503230159 | 25 | 159 | 3.2 | 9.7 | 0.00 | 0.00 | 0.00 | 43 | 1017.8 |
| 20260503230057 | 25 | 161 | 0.0 | 9.7 | 0.00 | 0.00 | 0.00 | 43 | 1017.7 |
| 20260503230005 | 25 | 161 | 1.6 | 9.7 | 0.00 | 0.00 | 0.00 | 43 | 1017.7 |
| 20260503225856 | 25 | 161 | 1.6 | 9.7 | 0.00 | 0.00 | 0.00 | 42 | 1017.9 |
| 20260503225657 | 25 | 164 | 3.2 | 9.7 | 0.00 | 0.00 | 0.00 | 42 | 1017.9 |
| 20260503225500 | 26 | 194 | 4.8 | 8.0 | 0.00 | 0.00 | 0.00 | 43 | 1017.9 |
| 20260503225357 | 26 | 225 | 1.6 | 8.0 | 0.00 | 0.00 | 0.00 | 42 | 1017.9 |
| 20260503225257 | 26 | 279 | 3.2 | 8.0 | 0.00 | 0.00 | 0.00 | 42 | 1017.9 |
| 20260503225200 | 26 | 281 | 1.6 | 8.0 | 0.00 | 0.00 | 0.00 | 43 | 1017.9 |
| 20260503225100 | 26 | 281 | 1.6 | 8.0 | 0.00 | 0.00 | 0.00 | 43 | 1018.0 |
| 20260503224958 | 26 | 291 | 1.6 | 9.7 | 0.00 | 0.00 | 0.00 | 42 | 1018.0 |
| 20260503224857 | 26 | 302 | 4.8 | 9.7 | 0.00 | 0.00 | 0.00 | 42 | 1017.9 |
| 20260503224758 | 26 | 306 | 3.2 | 9.7 | 0.00 | 0.00 | 0.00 | 42 | 1017.9 |
| 20260503224700 | 26 | 162 | 1.6 | 9.7 | 0.00 | 0.00 | 0.00 | 42 | 1017.9 |
| 20260503224457 | 26 | 198 | 0.0 | 9.7 | 0.00 | 0.00 | 0.00 | 42 | 1018.1 |
| 20260503224359 | 26 | 198 | 1.6 | 9.7 | 0.00 | 0.00 | 0.00 | 42 | 1018.1 |
| 20260503224259 | 26 | 198 | 0.0 | 9.7 | 0.00 | 0.00 | 0.00 | 41 | 1018.0 |
| 20260503224159 | 26 | 161 | 6.4 | 8.0 | 0.00 | 0.00 | 0.00 | 42 | 1018.0 |
| 20260503224057 | 26 | 180 | 6.4 | 8.0 | 0.00 | 0.00 | 0.00 | 42 | 1018.1 |
| 20260503224001 | 26 | 175 | 1.6 | 8.0 | 0.00 | 0.00 | 0.00 | 42 | 1018.1 |
| 20260503223859 | 26 | 173 | 4.8 | 8.0 | 0.00 | 0.00 | 0.00 | 42 | 1018.1 |
| 20260503223557 | 26 | 198 | 0.0 | 6.4 | 0.00 | 0.00 | 0.00 | 42 | 1018.0 |
| 20260503223500 | 26 | 198 | 0.0 | 6.4 | 0.00 | 0.00 | 0.00 | 42 | 1018.0 |
| 20260503223358 | 26 | 197 | 4.8 | 6.4 | 0.00 | 0.00 | 0.00 | 41 | 1017.9 |
| 20260503223158 | 26 | 212 | 1.6 | 9.7 | 0.00 | 0.00 | 0.00 | 41 | 1018.0 |
| 20260503223059 | 26 | 213 | 1.6 | 9.7 | 0.00 | 0.00 | 0.00 | 41 | 1018.0 |
| 20260503223001 | 26 | 213 | 1.6 | 9.7 | 0.00 | 0.00 | 0.00 | 40 | 1018.1 |
| 20260503222801 | 26 | 214 | 3.2 | 9.7 | 0.00 | 0.00 | 0.00 | 41 | 1018.2 |
| 20260503222659 | 26 | 214 | 1.6 | 9.7 | 0.00 | 0.00 | 0.00 | 40 | 1018.2 |
| 20260503222457 | 26 | 214 | 1.6 | 9.7 | 0.00 | 0.00 | 0.00 | 40 | 1018.2 |
| 20260503222358 | 26 | 214 | 0.0 | 9.7 | 0.00 | 0.00 | 0.00 | 40 | 1018.2 |
| 20260503222259 | 26 | 189 | 0.0 | 6.4 | 0.00 | 0.00 | 0.00 | 40 | 1018.2 |
| 20260503222158 | 26 | 189 | 1.6 | 6.4 | 0.00 | 0.00 | 0.00 | 40 | 1018.3 |
| 20260503222057 | 26 | 193 | 3.2 | 6.4 | 0.00 | 0.00 | 0.00 | 41 | 1018.3 |
| 20260503221959 | 26 | 194 | 1.6 | 8.0 | 0.00 | 0.00 | 0.00 | 40 | 1018.3 |
| 20260503221757 | 27 | 193 | 4.8 | 8.0 | 0.00 | 0.00 | 0.00 | 39 | 1018.4 |
| 20260503221558 | 27 | 192 | 1.6 | 8.0 | 0.00 | 0.00 | 0.00 | 40 | 1018.4 |
| 20260503221457 | 27 | 196 | 1.6 | 8.0 | 0.00 | 0.00 | 0.00 | 40 | 1018.4 |
| 20260503221158 | 27 | 196 | 4.8 | 8.0 | 0.00 | 0.00 | 0.00 | 40 | 1018.3 |
| 20260503221058 | 27 | 210 | 3.2 | 8.0 | 0.00 | 0.00 | 0.00 | 39 | 1018.3 |
| 20260503220858 | 27 | 209 | 4.8 | 6.4 | 0.00 | 0.00 | 0.00 | 39 | 1018.2 |
| 20260503220757 | 27 | 209 | 1.6 | 6.4 | 0.00 | 0.00 | 0.00 | 39 | 1018.3 |
| 20260503220657 | 27 | 209 | 1.6 | 6.4 | 0.00 | 0.00 | 0.00 | 39 | 1018.2 |
| 20260503220601 | 27 | 212 | 1.6 | 6.4 | 0.00 | 0.00 | 0.00 | 39 | 1018.2 |
| 20260503220400 | 27 | 212 | 0.0 | 8.0 | 0.00 | 0.00 | 0.00 | 39 | 1018.2 |
| 20260503220158 | 27 | 212 | 1.6 | 8.0 | 0.00 | 0.00 | 0.00 | 38 | 1018.3 |
| 20260503220100 | 27 | 212 | 1.6 | 8.0 | 0.00 | 0.00 | 0.00 | 38 | 1018.3 |
| 20260503215857 | 27 | 210 | 0.0 | 8.0 | 0.00 | 0.00 | 0.00 | 37 | 1018.3 |
| 20260503215758 | 27 | 210 | 4.8 | 8.0 | 0.00 | 0.00 | 0.00 | 36 | 1018.3 |
| 20260503215659 | 27 | 210 | 4.8 | 8.0 | 0.00 | 0.00 | 0.00 | 37 | 1018.3 |
| 20260503215557 | 27 | 169 | 1.6 | 6.4 | 0.00 | 0.00 | 0.00 | 36 | 1018.4 |
| 20260503215458 | 27 | 169 | 3.2 | 6.4 | 0.00 | 0.00 | 0.00 | 36 | 1018.3 |
| 20260503215358 | 27 | 169 | 3.2 | 6.4 | 0.00 | 0.00 | 0.00 | 35 | 1018.3 |
| 20260503215300 | 27 | 169 | 1.6 | 6.4 | 0.00 | 0.00 | 0.00 | 35 | 1018.3 |
| 20260503215157 | 27 | 172 | 1.6 | 4.8 | 0.00 | 0.00 | 0.00 | 35 | 1018.3 |
| 20260503215057 | 27 | 172 | 1.6 | 3.2 | 0.00 | 0.00 | 0.00 | 36 | 1018.3 |
| 20260503214959 | 27 | 172 | 0.0 | 3.2 | 0.00 | 0.00 | 0.00 | 36 | 1018.3 |
| 20260503214857 | 27 | 172 | 0.0 | 3.2 | 0.00 | 0.00 | 0.00 | 35 | 1018.3 |
| 20260503214758 | 27 | 172 | 0.0 | 3.2 | 0.00 | 0.00 | 0.00 | 35 | 1018.3 |
| 20260503214657 | 27 | 172 | 0.0 | 3.2 | 0.00 | 0.00 | 0.00 | 35 | 1018.3 |
| 20260503214600 | 27 | 172 | 3.2 | 3.2 | 0.00 | 0.00 | 0.00 | 35 | 1018.3 |
| 20260503214258 | 27 | 172 | 1.6 | 3.2 | 0.00 | 0.00 | 0.00 | 35 | 1018.4 |
| 20260503214157 | 27 | 172 | 3.2 | 4.8 | 0.00 | 0.00 | 0.00 | 35 | 1018.4 |
| 20260503214057 | 27 | 172 | 3.2 | 4.8 | 0.00 | 0.00 | 0.00 | 36 | 1018.4 |
| 20260503213758 | 27 | 172 | 0.0 | 4.8 | 0.00 | 0.00 | 0.00 | 35 | 1018.6 |
| 20260503213657 | 27 | 172 | 0.0 | 4.8 | 0.00 | 0.00 | 0.00 | 34 | 1018.7 |
| 20260503213558 | 27 | 172 | 1.6 | 4.8 | 0.00 | 0.00 | 0.00 | 34 | 1018.7 |
| 20260503213458 | 27 | 172 | 0.0 | 4.8 | 0.00 | 0.00 | 0.00 | 34 | 1018.7 |
| 20260503213358 | 27 | 172 | 0.0 | 4.8 | 0.00 | 0.00 | 0.00 | 36 | 1018.7 |
| 20260503213257 | 27 | 175 | 0.0 | 4.8 | 0.00 | 0.00 | 0.00 | 35 | 1018.7 |
| 20260503213057 | 27 | 175 | 4.8 | 4.8 | 0.00 | 0.00 | 0.00 | 36 | 1018.7 |
| 20260503212959 | 27 | 175 | 1.6 | 4.8 | 0.00 | 0.00 | 0.00 | 36 | 1018.7 |
| 20260503212857 | 27 | 174 | 1.6 | 4.8 | 0.00 | 0.00 | 0.00 | 35 | 1018.7 |
| 20260503212758 | 27 | 175 | 1.6 | 4.8 | 0.00 | 0.00 | 0.00 | 34 | 1018.7 |
| 20260503212657 | 27 | 174 | 0.0 | 4.8 | 0.00 | 0.00 | 0.00 | 35 | 1018.7 |
| 20260503212558 | 27 | 174 | 3.2 | 6.4 | 0.00 | 0.00 | 0.00 | 36 | 1018.7 |
| 20260503212457 | 27 | 174 | 1.6 | 6.4 | 0.00 | 0.00 | 0.00 | 35 | 1018.7 |
| 20260503212358 | 27 | 174 | 0.0 | 6.4 | 0.00 | 0.00 | 0.00 | 35 | 1018.7 |
| 20260503212259 | 27 | 174 | 1.6 | 6.4 | 0.00 | 0.00 | 0.00 | 34 | 1018.7 |
| 20260503212157 | 27 | 174 | 1.6 | 6.4 | 0.00 | 0.00 | 0.00 | 34 | 1018.9 |
| 20260503212057 | 27 | 174 | 1.6 | 6.4 | 0.00 | 0.00 | 0.00 | 36 | 1018.9 |
| 20260503211959 | 27 | 174 | 0.0 | 6.4 | 0.00 | 0.00 | 0.00 | 35 | 1018.9 |
| 20260503211857 | 27 | 174 | 0.0 | 6.4 | 0.00 | 0.00 | 0.00 | 36 | 1018.9 |
| 20260503211758 | 27 | 174 | 1.6 | 6.4 | 0.00 | 0.00 | 0.00 | 36 | 1018.9 |
| 20260503211657 | 27 | 174 | 3.2 | 6.4 | 0.00 | 0.00 | 0.00 | 36 | 1018.9 |
| 20260503211558 | 27 | 173 | 0.0 | 6.4 | 0.00 | 0.00 | 0.00 | 35 | 1019.0 |
| 20260503211457 | 27 | 173 | 1.6 | 6.4 | 0.00 | 0.00 | 0.00 | 35 | 1019.0 |
| 20260503211257 | 27 | 173 | 0.0 | 6.4 | 0.00 | 0.00 | 0.00 | 36 | 1019.1 |
| 20260503211158 | 27 | 173 | 1.6 | 6.4 | 0.00 | 0.00 | 0.00 | 35 | 1019.0 |
| 20260503210959 | 27 | 181 | 0.0 | 6.4 | 0.00 | 0.00 | 0.00 | 37 | 1019.0 |
| 20260503210900 | 27 | 181 | 0.0 | 6.4 | 0.00 | 0.00 | 0.00 | 35 | 1019.0 |
| 20260503210758 | 27 | 181 | 0.0 | 9.7 | 0.00 | 0.00 | 0.00 | 34 | 1019.0 |
| 20260503210657 | 27 | 173 | 3.2 | 9.7 | 0.00 | 0.00 | 0.00 | 35 | 1019.0 |
| 20260503210558 | 27 | 173 | 0.0 | 9.7 | 0.00 | 0.00 | 0.00 | 35 | 1019.1 |
| 20260503210457 | 27 | 173 | 3.2 | 9.7 | 0.00 | 0.00 | 0.00 | 35 | 1019.1 |
| 20260503210359 | 27 | 177 | 1.6 | 9.7 | 0.00 | 0.00 | 0.00 | 34 | 1019.1 |
| 20260503210158 | 27 | 138 | 3.2 | 9.7 | 0.00 | 0.00 | 0.00 | 34 | 1019.1 |
| 20260503210057 | 27 | 104 | 1.6 | 9.7 | 0.00 | 0.00 | 0.00 | 35 | 1019.1 |
| 20260503210000 | 27 | 104 | 3.2 | 9.7 | 0.00 | 0.00 | 0.00 | 35 | 1019.1 |
| 20260503205858 | 27 | 235 | 1.6 | 4.8 | 0.00 | 0.00 | 0.00 | 35 | 1019.1 |
| 20260503205758 | 27 | 235 | 0.0 | 4.8 | 0.00 | 0.00 | 0.00 | 34 | 1019.1 |
| 20260503205658 | 27 | 235 | 1.6 | 4.8 | 0.00 | 0.00 | 0.00 | 36 | 1019.1 |
| 20260503205559 | 27 | 235 | 0.0 | 4.8 | 0.00 | 0.00 | 0.00 | 35 | 1019.1 |
| 20260503205458 | 27 | 235 | 1.6 | 4.8 | 0.00 | 0.00 | 0.00 | 35 | 1019.1 |
| 20260503205257 | 27 | 235 | 1.6 | 9.7 | 0.00 | 0.00 | 0.00 | 34 | 1019.2 |
| 20260503205156 | 27 | 235 | 3.2 | 9.7 | 0.00 | 0.00 | 0.00 | 33 | 1019.2 |
| 20260503205057 | 27 | 235 | 3.2 | 9.7 | 0.00 | 0.00 | 0.00 | 35 | 1019.2 |
| 20260503205000 | 27 | 236 | 3.2 | 9.7 | 0.00 | 0.00 | 0.00 | 34 | 1019.2 |
| 20260503204858 | 27 | 236 | 0.0 | 9.7 | 0.00 | 0.00 | 0.00 | 36 | 1019.3 |
| 20260503204757 | 27 | 236 | 3.2 | 9.7 | 0.00 | 0.00 | 0.00 | 36 | 1019.3 |
| 20260503204557 | 27 | 240 | 4.8 | 9.7 | 0.00 | 0.00 | 0.00 | 36 | 1019.3 |
| 20260503204458 | 27 | 214 | 1.6 | 11.3 | 0.00 | 0.00 | 0.00 | 36 | 1019.3 |
| 20260503204156 | 27 | 214 | 1.6 | 11.3 | 0.00 | 0.00 | 0.00 | 35 | 1019.4 |
| 20260503204056 | 27 | 214 | 3.2 | 11.3 | 0.00 | 0.00 | 0.00 | 36 | 1019.5 |
| 20260503203856 | 27 | 214 | 0.0 | 11.3 | 0.00 | 0.00 | 0.00 | 36 | 1019.5 |
| 20260503203758 | 27 | 214 | 3.2 | 11.3 | 0.00 | 0.00 | 0.00 | 35 | 1019.4 |
| 20260503203557 | 27 | 186 | 0.0 | 8.0 | 0.00 | 0.00 | 0.00 | 35 | 1019.5 |
| 20260503203458 | 28 | 187 | 1.6 | 8.0 | 0.00 | 0.00 | 0.00 | 36 | 1019.5 |
| 20260503203358 | 28 | 187 | 4.8 | 8.0 | 0.00 | 0.00 | 0.00 | 34 | 1019.5 |
| 20260503203258 | 28 | 187 | 3.2 | 11.3 | 0.00 | 0.00 | 0.00 | 35 | 1019.5 |
| 20260503203158 | 28 | 192 | 3.2 | 11.3 | 0.00 | 0.00 | 0.00 | 36 | 1019.5 |
| 20260503203058 | 28 | 154 | 3.2 | 11.3 | 0.00 | 0.00 | 0.00 | 36 | 1019.4 |
| 20260503202958 | 28 | 150 | 1.6 | 11.3 | 0.00 | 0.00 | 0.00 | 36 | 1019.5 |
| 20260503202858 | 28 | 150 | 0.0 | 11.3 | 0.00 | 0.00 | 0.00 | 35 | 1019.5 |
| 20260503202759 | 28 | 150 | 3.2 | 11.3 | 0.00 | 0.00 | 0.00 | 35 | 1019.5 |
| 20260503202658 | 28 | 90 | 1.6 | 11.3 | 0.00 | 0.00 | 0.00 | 35 | 1019.6 |
| 20260503202557 | 28 | 90 | 6.4 | 11.3 | 0.00 | 0.00 | 0.00 | 35 | 1019.6 |
| 20260503202458 | 28 | 85 | 4.8 | 11.3 | 0.00 | 0.00 | 0.00 | 35 | 1019.6 |
| 20260503202358 | 28 | 125 | 3.2 | 9.7 | 0.00 | 0.00 | 0.00 | 35 | 1019.7 |
| 20260503202256 | 28 | 130 | 3.2 | 9.7 | 0.00 | 0.00 | 0.00 | 36 | 1019.7 |
| 20260503202058 | 28 | 86 | 0.0 | 9.7 | 0.00 | 0.00 | 0.00 | 35 | 1019.8 |
| 20260503202000 | 28 | 85 | 0.0 | 9.7 | 0.00 | 0.00 | 0.00 | 36 | 1019.8 |
| 20260503201756 | 28 | 47 | 9.7 | 9.7 | 0.00 | 0.00 | 0.00 | 35 | 1019.8 |
| 20260503201658 | 28 | 56 | 1.6 | 6.4 | 0.00 | 0.00 | 0.00 | 36 | 1019.9 |
| 20260503201357 | 28 | 151 | 1.6 | 8.0 | 0.00 | 0.00 | 0.00 | 37 | 1019.8 |
| 20260503201258 | 28 | 152 | 0.0 | 8.0 | 0.00 | 0.00 | 0.00 | 37 | 1019.8 |
| 20260503201158 | 28 | 152 | 0.0 | 8.0 | 0.00 | 0.00 | 0.00 | 35 | 1019.9 |
| 20260503201056 | 28 | 152 | 1.6 | 8.0 | 0.00 | 0.00 | 0.00 | 35 | 1019.9 |
| 20260503201002 | 28 | 152 | 4.8 | 8.0 | 0.00 | 0.00 | 0.00 | 34 | 1019.9 |
| 20260503200858 | 28 | 107 | 0.0 | 8.0 | 0.00 | 0.00 | 0.00 | 35 | 1020.0 |
| 20260503200758 | 28 | 107 | 1.6 | 8.0 | 0.00 | 0.00 | 0.00 | 35 | 1020.0 |
| 20260503200657 | 28 | 107 | 4.8 | 8.0 | 0.00 | 0.00 | 0.00 | 35 | 1020.0 |
| 20260503200556 | 28 | 101 | 3.2 | 8.0 | 0.00 | 0.00 | 0.00 | 36 | 1019.9 |
| 20260503200458 | 28 | 101 | 0.0 | 8.0 | 0.00 | 0.00 | 0.00 | 37 | 1020.0 |
| 20260503200358 | 28 | 101 | 0.0 | 8.0 | 0.00 | 0.00 | 0.00 | 37 | 1020.0 |
| 20260503200257 | 28 | 101 | 3.2 | 8.0 | 0.00 | 0.00 | 0.00 | 36 | 1020.1 |
| 20260503200156 | 28 | 101 | 0.0 | 8.0 | 0.00 | 0.00 | 0.00 | 35 | 1020.1 |
| 20260503200057 | 28 | 101 | 4.8 | 8.0 | 0.00 | 0.00 | 0.00 | 36 | 1020.2 |
| 20260503200004 | 27 | 101 | 0.0 | 8.0 | 0.00 | 0.00 | 0.00 | 36 | 1020.2 |
| 20260503195859 | 27 | 96 | 3.2 | 8.0 | 0.00 | 0.00 | 0.00 | 37 | 1020.1 |
| 20260503195757 | 27 | 96 | 1.6 | 8.0 | 0.00 | 0.00 | 0.00 | 37 | 1020.1 |
| 20260503195656 | 27 | 96 | 0.0 | 8.0 | 0.00 | 0.00 | 0.00 | 36 | 1020.1 |
| 20260503195559 | 27 | 96 | 0.0 | 8.0 | 0.00 | 0.00 | 0.00 | 36 | 1020.1 |
| 20260503195459 | 27 | 96 | 0.0 | 8.0 | 0.00 | 0.00 | 0.00 | 37 | 1020.1 |
| 20260503195359 | 27 | 96 | 0.0 | 8.0 | 0.00 | 0.00 | 0.00 | 37 | 1020.2 |
| 20260503195257 | 27 | 158 | 3.2 | 8.0 | 0.00 | 0.00 | 0.00 | 36 | 1020.1 |
| 20260503195158 | 27 | 130 | 3.2 | 8.0 | 0.00 | 0.00 | 0.00 | 37 | 1020.2 |
| 20260503195058 | 27 | 223 | 0.0 | 8.0 | 0.00 | 0.00 | 0.00 | 36 | 1020.2 |
| 20260503195001 | 27 | 133 | 1.6 | 6.4 | 0.00 | 0.00 | 0.00 | 37 | 1020.2 |
| 20260503194857 | 27 | 133 | 1.6 | 6.4 | 0.00 | 0.00 | 0.00 | 36 | 1020.3 |
| 20260503194757 | 27 | 133 | 0.0 | 6.4 | 0.00 | 0.00 | 0.00 | 37 | 1020.2 |
| 20260503194659 | 27 | 133 | 3.2 | 6.4 | 0.00 | 0.00 | 0.00 | 37 | 1020.2 |
| 20260503194559 | 27 | 133 | 1.6 | 6.4 | 0.00 | 0.00 | 0.00 | 37 | 1020.2 |
| 20260503194457 | 27 | 154 | 3.2 | 6.4 | 0.00 | 0.00 | 0.00 | 37 | 1020.2 |
| 20260503194259 | 27 | 154 | 0.0 | 6.4 | 0.00 | 0.00 | 0.00 | 38 | 1020.2 |
| 20260503194159 | 27 | 156 | 0.0 | 6.4 | 0.00 | 0.00 | 0.00 | 37 | 1020.3 |
| 20260503194057 | 27 | 156 | 1.6 | 6.4 | 0.00 | 0.00 | 0.00 | 37 | 1020.3 |
| 20260503193958 | 27 | 156 | 3.2 | 6.4 | 0.00 | 0.00 | 0.00 | 36 | 1020.3 |
| 20260503193858 | 27 | 200 | 4.8 | 4.8 | 0.00 | 0.00 | 0.00 | 38 | 1020.3 |
| 20260503193657 | 27 | 209 | 0.0 | 4.8 | 0.00 | 0.00 | 0.00 | 37 | 1020.4 |
| 20260503193459 | 27 | 209 | 1.6 | 4.8 | 0.00 | 0.00 | 0.00 | 37 | 1020.4 |
| 20260503193359 | 27 | 208 | 4.8 | 4.8 | 0.00 | 0.00 | 0.00 | 38 | 1020.4 |
| 20260503193257 | 27 | 212 | 1.6 | 9.7 | 0.00 | 0.00 | 0.00 | 38 | 1020.5 |
| 20260503193157 | 27 | 212 | 1.6 | 9.7 | 0.00 | 0.00 | 0.00 | 38 | 1020.5 |
| 20260503193059 | 27 | 212 | 3.2 | 9.7 | 0.00 | 0.00 | 0.00 | 38 | 1020.5 |
| 20260503193000 | 27 | 212 | 1.6 | 9.7 | 0.00 | 0.00 | 0.00 | 38 | 1020.4 |
| 20260503192856 | 27 | 212 | 3.2 | 9.7 | 0.00 | 0.00 | 0.00 | 37 | 1020.5 |
| 20260503192659 | 27 | 212 | 1.6 | 9.7 | 0.00 | 0.00 | 0.00 | 38 | 1020.5 |